User: anonymous   Login
Location: Meanaryar
(48.4161°N, 4.7315°W)
Time: 17:46:49
(UTC+00:00)
Language:

Cosmos 2251 Rocket - Orbit

View from above orbital plane
View from above orbital plane
View from above satellite
View from above satellite

Ground track
Ground track

The orbit data is extracted from the following two-line orbital elements,

1 22676U 93036B   20338.16179312  .00000071  00000-0  34548-4 0  9996
2 22676  74.0440  28.2010 0017498 106.4730 253.8347 14.34020415436668
Epoch (UTC): 03 December 2020 03:52:58
Eccentricity: 0.0017498
inclination: 74.0440°
perigee height: 766 km
apogee height: 791 km
right ascension of ascending node: 28.2010°
argument of perigee: 106.4730°
revolutions per day: 14.34020415
mean anomaly at epoch: 253.8347°
orbit number at epoch: 43666

The dashed part of the orbit path shows where the satellite is in the earth's shadow,  

DLR